User: anonymous   Login
Location: Ottawa
(45.4170°N, 75.7000°W)
Time: 06:39:46
(UTC-04:00)
Language:

Aureole 3 Rocket - Orbit

View from above orbital plane
View from above orbital plane
View from above satellite
View from above satellite

Ground track
Ground track

The orbit data is extracted from the following two-line orbital elements,

1 12849U 81094B   16150.20177867  .00000917  00000-0  83380-4 0  9990
2 12849  82.4924 101.3505 0904911   7.3432 353.9972 13.49825745690127
Epoch (UTC): 29 May 2016 04:50:33
Eccentricity: 0.0904911
inclination: 82.4924°
perigee height: 398 km
apogee height: 1747 km
right ascension of ascending node: 101.3505°
argument of perigee: 7.3432°
revolutions per day: 13.49825745
mean anomaly at epoch: 353.9972°
orbit number at epoch: 69012

The dashed part of the orbit path shows where the satellite is in the earth's shadow,  

DLR